User: anonymous
Location: Caltech
(34.1382°N, 118.1253°W)
Time: 22:05:57
(UTC-07:00)
Language:

Cosmos 2237 Rocket - Orbit

View from above orbital plane
View from above orbital plane
View from above satellite
View from above satellite

Ground track
Ground track

The orbit data is extracted from the following two-line orbital elements,

1 22566U 93016B   14206.22794192 -.00000203  00000-0 -80443-4 0  1081
2 22566 071.0094 127.4856 0012624 298.9416 061.0440 14.14850757101628
Epoch (UTC): 25 July 2014 05:28:14
Eccentricity: 0.0012624
inclination: 71.0094°
perigee height: 834 km
apogee height: 852 km
right ascension of ascending node: 127.4856°
argument of perigee: 298.9416°
revolutions per day: 14.14850757
mean anomaly at epoch: 61.0440°
orbit number at epoch: 10162

The dashed part of the orbit path shows where the satellite is in the earth's shadow,  

DLR